• In Italy
  • List of Countries
  • For 7 days
  • Water Temperature
  • Satellite Maps
  • Weather Map
  • Weather Widgets
  • user-avatar
    Login

    Hourly Weather Yerevan

    Today, 24 October, Tuesday

    Time Temperature Precipitation Wind Pressure Humidity
    00:00 +13°C° 0 mm 1 mps 690 mmHg 40%
    01:00 +13°C° 0 mm 1 mps 690 mmHg 40%
    02:00 +12°C° 0 mm 1 mps 690 mmHg 41%
    03:00 +12°C° 0 mm 1 mps 690 mmHg 42%
    04:00 +12°C° 0 mm 1 mps 690 mmHg 42%
    05:00 +12°C° 0 mm 1 mps 690 mmHg 42%
    06:00 +11°C° 0 mm 1 mps 690 mmHg 42%
    07:00 +13°C° 0 mm 1 mps 691 mmHg 38%
    08:00 +16°C° 0 mm 2 mps 691 mmHg 33%
    09:00 +18°C° 0 mm 2 mps 691 mmHg 29%
    10:00 +19°C° 0 mm 2 mps 691 mmHg 27%
    11:00 +20°C° 0 mm 3 mps 691 mmHg 25%
    12:00 +21°C° 0 mm 3 mps 691 mmHg 23%
    13:00 +21°C° 0 mm 3 mps 691 mmHg 23%
    14:00 +21°C° 0 mm 3 mps 691 mmHg 23%
    15:00 +21°C° 0 mm 4 mps 690 mmHg 23%
    16:00 +20°C° 0 mm 3 mps 691 mmHg 27%
    17:00 +18°C° 0 mm 3 mps 691 mmHg 30%
    18:00 +16°C° 0 mm 2 mps 691 mmHg 34%
    19:00 +15°C° 0 mm 2 mps 691 mmHg 35%
    20:00 +15°C° 0 mm 2 mps 691 mmHg 35%
    21:00 +15°C° 0 mm 2 mps 691 mmHg 36%
    22:00 +14°C° 0 mm 2 mps 692 mmHg 37%
    23:00 +14°C° 0 mm 2 mps 692 mmHg 37%

    Tomorrow, 25 October, Wednesday

    Time Temperature Precipitation Wind Pressure Humidity
    00:00 +14°C° 0 mm 2 mps 692 mmHg 38%
    01:00 +14°C° 0 mm 2 mps 692 mmHg 39%
    02:00 +14°C° 0 mm 2 mps 692 mmHg 40%
    03:00 +13°C° 0 mm 2 mps 692 mmHg 40%
    04:00 +13°C° 0 mm 2 mps 692 mmHg 41%
    05:00 +13°C° 0 mm 2 mps 692 mmHg 42%
    06:00 +13°C° 0 mm 2 mps 692 mmHg 43%
    07:00 +15°C° 0 mm 2 mps 692 mmHg 38%
    08:00 +17°C° 0 mm 2 mps 693 mmHg 34%
    09:00 +19°C° 0 mm 2 mps 693 mmHg 30%
    10:00 +20°C° 0 mm 3 mps 693 mmHg 28%
    11:00 +21°C° 0 mm 3 mps 693 mmHg 26%
    12:00 +22°C° 0 mm 3 mps 693 mmHg 25%
    13:00 +24°C° 0 mm 3 mps 692 mmHg 25%
    14:00 +24°C° 0 mm 3 mps 692 mmHg 25%
    15:00 +24°C° 0 mm 3 mps 692 mmHg 25%
    16:00 +21°C° 0 mm 3 mps 692 mmHg 28%
    17:00 +19°C° 0 mm 2 mps 691 mmHg 31%
    18:00 +17°C° 0 mm 2 mps 691 mmHg 34%
    19:00 +17°C° 0 mm 2 mps 692 mmHg 35%
    20:00 +17°C° 0 mm 2 mps 692 mmHg 36%
    21:00 +16°C° 0 mm 2 mps 692 mmHg 36%
    22:00 +16°C° 0 mm 2 mps 692 mmHg 37%
    23:00 +16°C° 0 mm 2 mps 692 mmHg 38%

    Day after tomorrow, 26 October, Thursday

    Time Temperature Precipitation Wind Pressure Humidity
    00:00 +15°C° 0 mm 2 mps 692 mmHg 38%
    01:00 +15°C° 0 mm 2 mps 692 mmHg 39%
    02:00 +15°C° 0 mm 2 mps 692 mmHg 39%
    03:00 +15°C° 0 mm 2 mps 691 mmHg 40%
    04:00 +14°C° 0 mm 2 mps 691 mmHg 41%
    05:00 +14°C° 0 mm 2 mps 691 mmHg 41%
    06:00 +14°C° 0 mm 2 mps 691 mmHg 42%
    07:00 +16°C° 0 mm 2 mps 691 mmHg 37%
    08:00 +18°C° 0 mm 2 mps 692 mmHg 33%
    09:00 +20°C° 0 mm 2 mps 692 mmHg 28%
    10:00 +21°C° 0 mm 3 mps 692 mmHg 26%
    11:00 +24°C° 0 mm 3 mps 691 mmHg 24%
    12:00 +25°C° 0 mm 4 mps 691 mmHg 22%
    13:00 +25°C° 0 mm 4 mps 690 mmHg 21%
    14:00 +25°C° 0 mm 4 mps 690 mmHg 21%
    15:00 +25°C° 0 mm 4 mps 690 mmHg 21%
    16:00 +22°C° 0 mm 4 mps 689 mmHg 24%
    17:00 +20°C° 0 mm 3 mps 689 mmHg 27%
    18:00 +18°C° 0 mm 2 mps 689 mmHg 29%
    19:00 +18°C° 0 mm 2 mps 690 mmHg 30%
    20:00 +17°C° 0 mm 2 mps 690 mmHg 31%
    21:00 +17°C° 0 mm 2 mps 690 mmHg 31%
    22:00 +16°C° 0 mm 2 mps 690 mmHg 33%
    23:00 +16°C° 0 mm 2 mps 690 mmHg 34%

    27 October, Friday

    Time Temperature Precipitation Wind Pressure Humidity
    00:00 +15°C° 0 mm 2 mps 690 mmHg 35%
    01:00 +15°C° 0 mm 2 mps 690 mmHg 38%
    02:00 +15°C° 0 mm 2 mps 690 mmHg 41%
    03:00 +14°C° 0 mm 2 mps 690 mmHg 44%
    04:00 +14°C° 0 mm 1 mps 690 mmHg 46%
    05:00 +13°C° 0 mm 1 mps 690 mmHg 48%
    06:00 +13°C° 0 mm 1 mps 690 mmHg 51%
    07:00 +15°C° 0 mm 1 mps 691 mmHg 48%
    08:00 +17°C° 0 mm 2 mps 691 mmHg 45%
    09:00 +18°C° 0 mm 2 mps 692 mmHg 42%
    10:00 +19°C° 0 mm 2 mps 691 mmHg 39%
    11:00 +20°C° 0 mm 2 mps 691 mmHg 36%
    12:00 +21°C° 0 mm 2 mps 691 mmHg 34%
    13:00 +21°C° 0 mm 3 mps 691 mmHg 33%
    14:00 +21°C° 0 mm 3 mps 690 mmHg 32%
    15:00 +22°C° 0 mm 3 mps 690 mmHg 30%
    16:00 +20°C° 0 mm 3 mps 690 mmHg 34%
    17:00 +18°C° 0 mm 2 mps 690 mmHg 38%
    18:00 +17°C° 0 mm 2 mps 690 mmHg 41%
    19:00 +16°C° 0 mm 2 mps 690 mmHg 43%
    20:00 +16°C° 0 mm 2 mps 690 mmHg 44%
    21:00 +15°C° 0 mm 2 mps 690 mmHg 45%
    22:00 +15°C° 0 mm 2 mps 690 mmHg 45%
    23:00 +15°C° 0 mm 2 mps 689 mmHg 44%

    28 October, Saturday

    Time Temperature Precipitation Wind Pressure Humidity
    00:00 +14°C° 0 mm 2 mps 689 mmHg 44%
    01:00 +14°C° 0 mm 2 mps 689 mmHg 43%
    02:00 +14°C° 0 mm 2 mps 689 mmHg 43%
    03:00 +14°C° 0 mm 2 mps 689 mmHg 42%
    04:00 +13°C° 0 mm 2 mps 689 mmHg 41%
    05:00 +13°C° 0 mm 2 mps 689 mmHg 40%
    06:00 +13°C° 0 mm 2 mps 689 mmHg 40%
    07:00 +15°C° 0 mm 2 mps 689 mmHg 36%
    08:00 +17°C° 0 mm 2 mps 690 mmHg 33%
    09:00 +19°C° 0 mm 3 mps 690 mmHg 30%
    10:00 +21°C° 0 mm 3 mps 690 mmHg 30%
    11:00 +22°C° 0 mm 4 mps 690 mmHg 29%
    12:00 +23°C° 0 mm 5 mps 689 mmHg 29%
    13:00 +22°C° 0.2 mm 4 mps 689 mmHg 34%
    14:00 +21°C° 0.2 mm 4 mps 688 mmHg 40%
    15:00 +20°C° 0.2 mm 3 mps 688 mmHg 45%
    16:00 +19°C° 0.5 mm 3 mps 688 mmHg 51%
    17:00 +18°C° 0.5 mm 3 mps 688 mmHg 57%
    18:00 +17°C° 0.5 mm 3 mps 688 mmHg 63%
    19:00 +17°C° 0.8 mm 3 mps 688 mmHg 65%
    20:00 +17°C° 0.8 mm 3 mps 688 mmHg 67%
    21:00 +16°C° 0.8 mm 2 mps 688 mmHg 69%
    22:00 +16°C° 0.8 mm 2 mps 687 mmHg 70%
    23:00 +16°C° 0.8 mm 2 mps 687 mmHg 72%

    29 October, Sunday

    Time Temperature Precipitation Wind Pressure Humidity
    00:00 +15°C° 0.8 mm 2 mps 686 mmHg 73%
    01:00 +14°C° 0.9 mm 3 mps 686 mmHg 74%
    02:00 +14°C° 0.9 mm 3 mps 686 mmHg 76%
    03:00 +13°C° 0.9 mm 3 mps 686 mmHg 77%
    04:00 +13°C° 0.2 mm 3 mps 686 mmHg 76%
    05:00 +14°C° 0.2 mm 2 mps 686 mmHg 75%
    06:00 +14°C° 0.2 mm 2 mps 686 mmHg 74%
    07:00 +15°C° 0.1 mm 2 mps 686 mmHg 69%
    08:00 +16°C° 0.1 mm 2 mps 686 mmHg 65%
    09:00 +17°C° 0.1 mm 3 mps 687 mmHg 60%
    10:00 +18°C° 0 mm 3 mps 687 mmHg 56%
    11:00 +19°C° 0 mm 3 mps 687 mmHg 52%
    12:00 +20°C° 0 mm 3 mps 687 mmHg 47%
    13:00 +20°C° 0 mm 4 mps 687 mmHg 46%
    14:00 +20°C° 0 mm 4 mps 687 mmHg 44%
    15:00 +21°C° 0 mm 4 mps 686 mmHg 42%
    16:00 +19°C° 0 mm 4 mps 687 mmHg 46%
    17:00 +18°C° 0 mm 3 mps 687 mmHg 49%
    18:00 +17°C° 0 mm 3 mps 687 mmHg 53%
    19:00 +16°C° 0 mm 2 mps 687 mmHg 53%
    20:00 +16°C° 0 mm 2 mps 687 mmHg 53%
    21:00 +16°C° 0 mm 2 mps 688 mmHg 54%
    22:00 +15°C° 0 mm 2 mps 688 mmHg 54%
    23:00 +15°C° 0 mm 2 mps 687 mmHg 55%
    Show more